OBJECT H

Last updated on Tue Oct 09 2018 07:19:37 GMT+0000 (Coordinated Universal Time)

1 43187U 18014H 18281.82554581 .00000808 00000-0 76099-4 0 9996 2 43187 97.7162 188.7841 0012387 126.9143 233.3215 14.96511545 37315

Satellite not in orbit

OBJECT H